7 * 24
多渠道服务支持
STARLINK-37291(NORAD编号68560)是美国太空探索技术公司(SpaceX)星链(Starlink)星座中的一颗卫星,属于第二代星链卫星,是SpaceX批量发射的组网卫星之一,主要为全球提供低延迟、高速率的宽带互联网服务。作为Starlink大规模卫星互联网组网的组成部分,该卫星运行在近地轨道,承担网络节点功能,支撑星座覆盖范围与服务能力的扩展,目前在轨正常运行,是星链星座持续扩容过程中的在轨单元。
美国
(US)
| 数据来源 | 国际轨道数据 |
| 星历时间: | 2026-04-14T20:00:02+0800 5小时前 查看轨道信息 |
| 半长轴: | 6680.232km |
| 偏心率: | 0.0001088 |
| 轨道倾角: | 53.158° |
| 近地点辐角 | 93.845° |
| 升交点赤经 | 204.871° |
| 平近点角 | 56.959° |
| 近地点: | 301.368km |
| 远地点: | 302.822km |
| 周期: | 90.562分钟 |
| 每日圈数: | 15.900672 |